SCP
0 0 0 0 0 0 0 0 0 0 0 0 0 0 0 0 0 0 0 0 0 0 0 0 0 0 0 0 0 0 0 0 0 0 0 0 0 0 0 0 0 0 0
0 0 0 0 0 0 0 0 0 0 0 0 0 0 0 0 0 0 0 0 0 0 0 0 0 0 0 0 0 0 0 0 0 0 0 0 0 0 0 0 0 0 0
0 0 0 0 0 0 0 0 0 0 0 0 0 0 0 0 0 0 0 0 0 0 0 0 0 0 0 0 0 0 0 0 0 0 0 0 0 0 0 0 0 0 0
0 0 0 0 0 0 0 0 0 0 0 0 0 0 0 0 0 0 0 0 0 0 0 0 0 0 0 0 0 0 0 0 0 0 0 0 0 0 0 0 0 0 0
0 0 0 0 0 0 0 0 0 0 0 0 0 0 0 0 0 0 0 0 0 0 0 0 0 0 0 0 0 0 0 0 0 0 0 0 0 0 0 0 0 0 0
0 0 0 0 0 0 0 0 0 0 0 0 0 0 0 0 0 0 0 0 0 0 0 0 0 0 0 0 0 0 0 0 0 0 0 0 0 0 0 0 0 0 0
0 0 0 0 0 0 0 0 0 0 0 0 0 0 0 0 0 0 0 0 0 0 0 0 0 0 0 0 0 0 0 0 0 0 0 0 0 0 0 0 0 0 0
0 0 0 0 0 0 0 0 0 0 0 0 0 0 0 0 0 0 0 0 0 0 0 0 0 0 0 0 0 0 0 0 0 0 0 0 0 0 0 0 0 0 0
0 0 0 0 0 0 0 0 0 0 0 0 0 0 0 0 0 0 0 0 0 0 0 0 0 0 0 0 0 0 0 0 0 0 0 0 0 0 0 0 0 0 0
0 0 0 0 0 0 0 0 0 0 0 0 0 0 0 0 0 -0 0 0 0 0 0 0 0 0 0 0 0 0 0 0 0 0 0 0 0 0 0 0 0 0 0
0 0 0 0 0 0 0 0 0 0 0 0 0 -0 0 0 0 0 0 0 0 0 0 0 0 0 0 0 0 0 0 0 0 0 0 0 0 0 0 0 0 0 0
0 0 0 0 0 0 0 0 0 0 0 0 0 0 0 -0 0 0 0 0 0 0 0 0 0 0 0 0 0 0 0 0 0 0 0 0 0 0 0 0 0 0 0
0 0 0 0 0 0 0 0 0 0 0 0 0 0 0 0 0 0 0 0 -0 -0 -0 -0 0 0 0 0 0 0 0 0 0 0 0 0 0 0 0 0 0 0 0
0 0 0 0 0 0 0 0 0 0 0 0 0 0 0 0 0 0 -0 -0 -0 -0 -0 -0 -0 -0 0 0 0 0 0 0 0 0 0 0 0 0 0 0 0 0 0
0 0 0 0 0 0 0 0 0 0 0 0 0 0 0 0 0 0 0 0 -0 -0 -0 -0 -0 -0 -0 0 0 0 0 0 0 0 0 0 0 0 0 0 0 0 0
0 0 0 0 0 0 0 0 0 0 0 0 0 0 0 0 0 0 0 0 0 0 0 0 0 -0 0 0 0 0 0 0 0 0 0 0 0 0 0 0 0 0 0
0 0 0 0 0 0 -0 -0 -0 -0 -0 -0 -0 -0 0 -0 0 0 0 0 0 0 0 0 0 -0 -0 -0 0 0 0 0 0 0 0 0 0 0 0 0 0 0 0
0 0 0 0 0 0 0 -0 -0 -0 -0 -0 -0 -0 -0 -0 -0 0 0 0 0 0 0 0 -0 -0 -0 -0 -0 0 0 0 0 0 0 0 0 0 0 0 0 0 0
0 0 0 0 0 0 -0 -0 -0 -0 -0 -0 -0 -0 -0 -0 -0 -0 -0 0 0 0 0 0 -0 -0 0 -0 -0 -0 0 0 0 0 0 0 0 0 0 0 0 0 0
0 0 0 0 -0 -0 -0 -0 -0 -0 -0 -0 0 0 0 0 0 0 0 -0 -0 -0 0 0 0 -0 -0 -0 -0 -0 -0 -0 0 0 0 0 0 0 0 0 0 0 0
0 0 0 0 -0 -0 -0 -0 0 -0 -0 0 0 0 0 0 0 0 0 0 0 0 0 -0 -0 -0 -0 -0 0 -0 -0 -0 -0 0 0 0 0 0 0 0 0 0 0
0 0 0 0 -0 -0 -0 0 0 0 0 0 0 0 0 0 0 0 0 0 0 0 0 0 0 0 -0 -0 -0 0 0 -0 -0 -0 -0 -0 0 0 0 0 0 0 0
0 0 0 0 0 -0 -0 -0 0 0 0 0 0 0 0 0 0 0 0 0 0 0 0 0 0 0 0 0 0 0 0 0 0 0 -0 -0 -0 0 0 0 0 0 0
0 0 0 0 0 0 -0 0 0 0 0 0 0 0 0 0 0 0 0 0 0 0 0 0 0 0 0 0 0 0 0 0 0 0 0 0 0 -0 0 0 0 0 0
0 0 0 0 0 0 0 0 0 0 0 0 0 0 0 0 0 0 0 0 0 0 0 0 0 0 0 0 0 0 0 0 0 0 0 0 0 0 0 0 0 0 0
0 0 0 0 0 0 0 0 0 0 0 0 0 0 0 0 0 0 0 0 0 0 0 0 0 0 0 0 0 0 0 0 0 0 0 0 0 0 0 0 0 0 0
Wind_Speed_500mb
38 38 37 37 36 36 34 35 30 28 27 28 31 32 31 30 28 26 24 22 22 22 21 22 24 26 26 23 28 29 24 21 24 28 35 35 32 33 34 35 37 37 37
38 41 40 42 37 36 38 40 38 31 32 33 33 37 37 36 35 32 30 28 26 26 25 24 25 26 28 27 25 33 25 23 22 24 27 29 28 27 28 30 33 37 40
31 32 36 38 35 37 41 42 37 36 36 38 37 38 41 42 41 40 39 36 34 32 30 29 28 28 28 28 24 27 37 25 25 25 27 26 28 29 29 29 30 32 35
28 28 34 34 34 35 39 36 41 43 41 37 38 38 40 42 44 44 44 43 41 40 36 34 32 32 31 30 26 30 37 40 30 26 22 23 25 27 23 24 27 29 29
12 14 19 26 34 34 36 35 36 39 37 37 39 40 41 44 46 47 48 49 48 46 44 41 39 36 35 34 32 24 39 43 39 34 22 24 24 25 22 24 24 24 26
21 18 18 20 23 16 15 25 31 33 36 40 43 44 46 48 51 51 49 50 52 51 49 47 46 43 41 39 38 30 40 39 42 41 36 28 29 29 28 26 26 28 28
13 19 17 18 22 20 25 26 27 24 29 35 43 49 52 55 52 51 52 52 52 53 53 53 52 50 47 44 42 44 39 39 37 48 49 35 29 31 30 31 31 30 31
20 23 23 22 24 25 29 35 36 32 32 35 38 44 41 57 19 16 23 23 35 47 53 57 57 54 51 50 48 48 47 46 42 42 44 45 37 33 32 32 33 33 33
13 15 19 21 24 25 27 31 36 39 40 37 33 26 17 14 57 54 40 46 39 25 20 29 39 49 53 53 52 53 54 56 58 51 50 48 46 41 35 32 33 35 36
18 17 16 16 17 18 19 19 19 24 30 37 37 35 33 39 36 44 53 63 63 60 55 49 35 33 33 38 47 53 56 59 63 67 61 60 54 51 42 38 37 38 39
18 19 20 23 23 24 23 19 17 17 18 19 24 30 35 42 49 53 74 72 75 70 70 70 68 65 59 55 50 45 46 55 63 67 67 66 65 58 50 47 43 41 41
23 24 25 24 24 24 28 32 32 31 28 26 25 24 27 32 41 47 63 80 80 85 76 71 72 73 72 71 69 65 60 57 58 63 69 71 72 70 64 57 51 47 45
25 27 28 28 30 29 29 31 31 28 31 32 34 34 34 33 35 38 48 65 80 86 85 75 68 65 64 65 68 70 70 69 64 61 65 68 71 74 75 68 64 59 54
26 27 29 31 32 34 35 36 38 40 40 41 38 39 41 36 40 43 44 49 71 78 82 67 72 58 52 49 49 56 66 70 70 65 62 65 70 73 75 77 77 72 65
28 30 31 32 33 36 40 43 45 48 50 51 51 53 53 51 50 49 48 48 48 56 84 67 73 68 69 66 63 63 64 65 65 70 70 66 66 73 76 78 79 76 71
32 35 36 36 38 42 47 53 58 61 65 65 66 67 67 65 65 63 61 60 59 60 75 86 90 84 78 74 67 65 63 63 71 75 73 70 67 69 75 78 79 79 76
35 37 40 44 51 59 64 69 73 76 79 82 82 83 82 78 76 74 72 71 72 70 85 99 96 93 89 87 81 72 69 66 66 69 77 83 77 70 72 78 81 79 79
39 41 46 51 57 63 69 76 82 85 90 92 91 90 93 88 86 81 79 81 83 82 85 101 99 99 99 92 91 87 80 76 73 66 69 78 87 86 77 74 81 83 81
46 50 58 65 69 75 81 84 87 90 91 92 94 96 96 96 99 98 91 88 87 87 89 97 109 99 104 102 102 97 93 88 81 76 71 71 79 86 93 87 83 83 85
53 58 65 71 77 81 82 82 84 87 90 93 95 95 97 98 98 97 95 93 85 83 85 88 99 93 92 102 100 101 104 97 95 85 81 77 73 80 86 95 94 89 89
58 64 69 73 78 81 83 86 88 92 95 97 98 97 97 95 92 83 73 82 79 80 80 74 80 75 73 66 79 87 94 94 101 95 92 91 84 81 83 89 96 99 98
65 70 74 79 83 83 83 85 85 88 92 93 95 93 90 89 87 78 68 69 71 79 85 81 84 82 83 69 64 68 80 79 87 78 63 81 75 81 78 81 86 93 99
71 74 78 82 86 87 87 88 84 84 87 87 86 86 85 79 77 76 76 69 71 73 74 82 93 100 92 83 72 73 78 75 88 86 84 101 94 100 90 84 74 77 89
70 74 80 84 87 87 85 84 82 79 82 80 78 77 75 76 69 62 64 69 71 69 66 65 71 86 93 97 87 84 88 98 107 98 78 97 90 101 102 93 81 77 77
70 76 81 85 86 84 80 79 77 76 77 78 74 71 68 69 63 56 62 71 76 77 70 62 66 71 74 78 78 83 93 87 98 92 88 98 110 101 89 104 97 82 78
72 76 80 79 79 81 75 74 69 65 70 74 71 72 72 64 58 58 65 73 84 84 84 84 76 71 71 76 76 70 85 86 95 99 82 81 92 81 83 101 100 95 84
Wind_Direction_500mb
260 269 271 277 279 287 296 295 290 290 285 276 268 266 266 267 268 269 270 274 279 285 290 294 297 301 307 308 303 303 304 294 283 267 268 279 274 270 261 253 251 237 236
265 266 270 277 280 290 295 303 302 292 290 286 280 273 270 270 269 267 267 267 269 274 279 282 287 293 299 304 302 302 309 308 299 284 284 283 274 272 268 264 260 255 246
276 274 271 271 280 285 288 293 298 298 297 292 286 281 276 273 272 271 269 267 267 268 270 274 278 281 284 292 292 275 299 309 303 297 295 288 278 277 277 274 270 265 260
258 263 267 263 277 284 285 291 286 293 298 298 293 290 283 278 275 273 271 271 271 270 271 271 273 276 279 280 275 266 278 298 302 303 290 290 282 284 287 276 273 274 273
270 275 283 288 288 285 282 288 290 291 302 303 300 293 289 284 282 277 273 271 270 271 271 271 271 271 272 272 269 255 265 280 294 301 295 291 286 289 283 277 277 275 274
281 281 279 286 275 307 295 280 284 289 294 299 299 298 293 289 284 279 275 271 270 271 271 271 271 272 271 270 269 260 258 266 282 285 297 289 288 290 288 284 279 275 275
275 273 278 288 292 297 299 293 290 295 295 299 304 298 294 293 291 288 281 277 272 268 267 266 266 267 266 266 265 260 245 254 261 272 282 287 279 282 279 278 277 276 274
312 304 304 310 303 305 301 301 302 308 307 299 306 314 316 307 291 324 295 278 277 271 269 268 267 267 268 266 264 260 257 247 255 262 274 281 284 279 279 275 274 274 271
318 305 295 286 281 283 291 302 309 310 309 304 309 317 322 299 305 297 282 293 297 287 294 291 280 273 271 268 266 263 260 256 256 256 256 266 271 278 272 272 272 275 272
21 14 7 355 336 322 308 300 295 298 301 299 293 291 295 301 309 309 296 289 286 282 284 287 284 280 276 274 268 266 264 262 258 261 262 259 261 265 268 266 268 270 271
59 50 38 34 27 22 13 360 344 338 329 311 305 299 293 289 291 300 302 299 293 286 283 281 279 276 276 275 270 267 269 268 266 265 263 261 262 259 256 262 269 269 269
38 35 27 23 23 19 14 7 5 3 2 346 329 317 309 306 299 296 297 297 298 298 296 291 286 281 276 273 271 269 267 268 268 266 265 264 263 261 258 255 260 265 267
18 18 15 12 10 8 0 357 355 355 350 345 341 337 335 326 310 301 297 299 302 302 301 299 299 296 290 281 273 269 267 266 268 270 267 263 261 261 259 256 256 263 266
4 4 1 359 356 352 348 346 342 339 337 333 331 326 323 320 317 318 315 310 307 306 305 306 307 305 307 301 292 278 269 265 262 264 269 269 263 259 258 259 258 262 262
352 352 348 347 345 342 339 335 333 330 327 325 321 316 312 311 308 306 303 303 304 301 305 301 303 305 304 301 295 287 281 276 267 262 261 264 265 263 259 256 258 260 259
339 335 334 334 333 332 329 328 326 324 321 319 316 312 308 304 301 298 296 293 291 291 286 291 297 298 300 299 299 295 287 279 273 268 261 258 262 262 261 259 257 259 257
326 325 326 327 328 327 325 323 322 320 318 316 313 311 307 304 300 296 292 289 285 283 284 287 289 292 292 294 295 293 293 290 280 272 268 260 255 258 261 260 259 258 257
324 323 323 322 322 321 320 320 319 319 318 316 314 311 309 307 302 299 295 290 287 286 286 287 287 285 288 288 289 290 289 287 288 284 274 267 261 255 254 260 261 259 257
320 320 321 323 322 322 321 320 318 317 315 313 312 310 307 306 305 305 302 297 293 289 287 287 289 289 286 287 288 286 285 284 284 286 285 276 265 259 255 254 257 259 257
316 318 320 321 321 320 318 317 315 314 312 310 307 303 300 298 297 296 297 297 296 293 290 288 287 289 288 286 286 287 286 285 284 281 279 279 274 264 256 252 254 258 258
312 315 316 317 318 318 318 317 315 314 312 309 306 303 300 297 293 290 288 289 290 289 287 285 285 287 284 286 285 288 286 287 283 280 278 274 273 272 264 256 251 252 256
312 315 317 318 319 318 318 315 314 314 311 307 306 304 302 300 297 293 286 280 276 278 280 284 283 281 282 280 280 281 285 285 284 282 284 278 276 272 269 264 257 252 252
312 315 317 318 318 319 319 318 318 313 310 308 307 306 304 301 299 298 294 288 281 273 270 272 275 275 281 278 277 274 271 276 276 276 278 277 275 272 269 268 265 258 252
310 314 316 317 318 321 321 319 316 313 309 308 308 307 305 305 307 302 301 298 294 292 291 286 278 277 276 277 280 280 279 273 270 265 267 268 268 269 272 268 265 260 257
311 315 317 318 319 319 321 320 318 313 311 311 312 311 314 313 306 297 295 295 296 294 294 284 279 279 278 277 275 278 275 274 272 271 266 259 264 266 265 270 267 261 257
312 316 316 316 318 321 323 320 317 315 311 313 317 319 316 305 300 295 292 292 291 292 294 296 297 296 294 294 289 275 270 273 270 272 266 254 257 256 262 264 265 265 259
Wind_Speed_850mb
38 38 37 37 36 36 34 35 30 28 27 28 31 32 31 30 28 26 24 22 22 22 21 22 24 26 26 23 28 29 24 21 24 28 35 35 32 33 34 35 37 37 37
38 41 40 42 37 36 38 40 38 31 32 33 33 37 37 36 35 32 30 28 26 26 25 24 25 26 28 27 25 33 25 23 22 24 27 29 28 27 28 30 33 37 40
31 32 36 38 35 37 41 42 37 36 36 38 37 38 41 42 41 40 39 36 34 32 30 29 28 28 28 28 24 27 37 25 25 25 27 26 28 29 29 29 30 32 35
28 28 34 34 34 35 39 36 41 43 41 37 38 38 40 42 44 44 44 43 41 40 36 34 32 32 31 30 26 30 37 40 30 26 22 23 25 27 23 24 27 29 29
12 14 19 26 34 34 36 35 36 39 37 37 39 40 41 44 46 47 48 49 48 46 44 41 39 36 35 34 32 24 39 43 39 34 22 24 24 25 22 24 24 24 26
21 18 18 20 23 16 15 25 31 33 36 40 43 44 46 48 51 51 49 50 52 51 49 47 46 43 41 39 38 30 40 39 42 41 36 28 29 29 28 26 26 28 28
13 19 17 18 22 20 25 26 27 24 29 35 43 49 52 55 52 51 52 52 52 53 53 53 52 50 47 44 42 44 39 39 37 48 49 35 29 31 30 31 31 30 31
20 23 23 22 24 25 29 35 36 32 32 35 38 44 41 57 19 16 23 23 35 47 53 57 57 54 51 50 48 48 47 46 42 42 44 45 37 33 32 32 33 33 33
13 15 19 21 24 25 27 31 36 39 40 37 33 26 17 14 57 54 40 46 39 25 20 29 39 49 53 53 52 53 54 56 58 51 50 48 46 41 35 32 33 35 36
18 17 16 16 17 18 19 19 19 24 30 37 37 35 33 39 36 44 53 63 63 60 55 49 35 33 33 38 47 53 56 59 63 67 61 60 54 51 42 38 37 38 39
18 19 20 23 23 24 23 19 17 17 18 19 24 30 35 42 49 53 74 72 75 70 70 70 68 65 59 55 50 45 46 55 63 67 67 66 65 58 50 47 43 41 41
23 24 25 24 24 24 28 32 32 31 28 26 25 24 27 32 41 47 63 80 80 85 76 71 72 73 72 71 69 65 60 57 58 63 69 71 72 70 64 57 51 47 45
25 27 28 28 30 29 29 31 31 28 31 32 34 34 34 33 35 38 48 65 80 86 85 75 68 65 64 65 68 70 70 69 64 61 65 68 71 74 75 68 64 59 54
26 27 29 31 32 34 35 36 38 40 40 41 38 39 41 36 40 43 44 49 71 78 82 67 72 58 52 49 49 56 66 70 70 65 62 65 70 73 75 77 77 72 65
28 30 31 32 33 36 40 43 45 48 50 51 51 53 53 51 50 49 48 48 48 56 84 67 73 68 69 66 63 63 64 65 65 70 70 66 66 73 76 78 79 76 71
32 35 36 36 38 42 47 53 58 61 65 65 66 67 67 65 65 63 61 60 59 60 75 86 90 84 78 74 67 65 63 63 71 75 73 70 67 69 75 78 79 79 76
35 37 40 44 51 59 64 69 73 76 79 82 82 83 82 78 76 74 72 71 72 70 85 99 96 93 89 87 81 72 69 66 66 69 77 83 77 70 72 78 81 79 79
39 41 46 51 57 63 69 76 82 85 90 92 91 90 93 88 86 81 79 81 83 82 85 101 99 99 99 92 91 87 80 76 73 66 69 78 87 86 77 74 81 83 81
46 50 58 65 69 75 81 84 87 90 91 92 94 96 96 96 99 98 91 88 87 87 89 97 109 99 104 102 102 97 93 88 81 76 71 71 79 86 93 87 83 83 85
53 58 65 71 77 81 82 82 84 87 90 93 95 95 97 98 98 97 95 93 85 83 85 88 99 93 92 102 100 101 104 97 95 85 81 77 73 80 86 95 94 89 89
58 64 69 73 78 81 83 86 88 92 95 97 98 97 97 95 92 83 73 82 79 80 80 74 80 75 73 66 79 87 94 94 101 95 92 91 84 81 83 89 96 99 98
65 70 74 79 83 83 83 85 85 88 92 93 95 93 90 89 87 78 68 69 71 79 85 81 84 82 83 69 64 68 80 79 87 78 63 81 75 81 78 81 86 93 99
71 74 78 82 86 87 87 88 84 84 87 87 86 86 85 79 77 76 76 69 71 73 74 82 93 100 92 83 72 73 78 75 88 86 84 101 94 100 90 84 74 77 89
70 74 80 84 87 87 85 84 82 79 82 80 78 77 75 76 69 62 64 69 71 69 66 65 71 86 93 97 87 84 88 98 107 98 78 97 90 101 102 93 81 77 77
70 76 81 85 86 84 80 79 77 76 77 78 74 71 68 69 63 56 62 71 76 77 70 62 66 71 74 78 78 83 93 87 98 92 88 98 110 101 89 104 97 82 78
72 76 80 79 79 81 75 74 69 65 70 74 71 72 72 64 58 58 65 73 84 84 84 84 76 71 71 76 76 70 85 86 95 99 82 81 92 81 83 101 100 95 84
Wind_Direction_850mb
260 269 271 277 279 287 296 295 290 290 285 276 268 266 266 267 268 269 270 274 279 285 290 294 297 301 307 308 303 303 304 294 283 267 268 279 274 270 261 253 251 237 236
265 266 270 277 280 290 295 303 302 292 290 286 280 273 270 270 269 267 267 267 269 274 279 282 287 293 299 304 302 302 309 308 299 284 284 283 274 272 268 264 260 255 246
276 274 271 271 280 285 288 293 298 298 297 292 286 281 276 273 272 271 269 267 267 268 270 274 278 281 284 292 292 275 299 309 303 297 295 288 278 277 277 274 270 265 260
258 263 267 263 277 284 285 291 286 293 298 298 293 290 283 278 275 273 271 271 271 270 271 271 273 276 279 280 275 266 278 298 302 303 290 290 282 284 287 276 273 274 273
270 275 283 288 288 285 282 288 290 291 302 303 300 293 289 284 282 277 273 271 270 271 271 271 271 271 272 272 269 255 265 280 294 301 295 291 286 289 283 277 277 275 274
281 281 279 286 275 307 295 280 284 289 294 299 299 298 293 289 284 279 275 271 270 271 271 271 271 272 271 270 269 260 258 266 282 285 297 289 288 290 288 284 279 275 275
275 273 278 288 292 297 299 293 290 295 295 299 304 298 294 293 291 288 281 277 272 268 267 266 266 267 266 266 265 260 245 254 261 272 282 287 279 282 279 278 277 276 274
312 304 304 310 303 305 301 301 302 308 307 299 306 314 316 307 291 324 295 278 277 271 269 268 267 267 268 266 264 260 257 247 255 262 274 281 284 279 279 275 274 274 271
318 305 295 286 281 283 291 302 309 310 309 304 309 317 322 299 305 297 282 293 297 287 294 291 280 273 271 268 266 263 260 256 256 256 256 266 271 278 272 272 272 275 272
21 14 7 355 336 322 308 300 295 298 301 299 293 291 295 301 309 309 296 289 286 282 284 287 284 280 276 274 268 266 264 262 258 261 262 259 261 265 268 266 268 270 271
59 50 38 34 27 22 13 360 344 338 329 311 305 299 293 289 291 300 302 299 293 286 283 281 279 276 276 275 270 267 269 268 266 265 263 261 262 259 256 262 269 269 269
38 35 27 23 23 19 14 7 5 3 2 346 329 317 309 306 299 296 297 297 298 298 296 291 286 281 276 273 271 269 267 268 268 266 265 264 263 261 258 255 260 265 267
18 18 15 12 10 8 0 357 355 355 350 345 341 337 335 326 310 301 297 299 302 302 301 299 299 296 290 281 273 269 267 266 268 270 267 263 261 261 259 256 256 263 266
4 4 1 359 356 352 348 346 342 339 337 333 331 326 323 320 317 318 315 310 307 306 305 306 307 305 307 301 292 278 269 265 262 264 269 269 263 259 258 259 258 262 262
352 352 348 347 345 342 339 335 333 330 327 325 321 316 312 311 308 306 303 303 304 301 305 301 303 305 304 301 295 287 281 276 267 262 261 264 265 263 259 256 258 260 259
339 335 334 334 333 332 329 328 326 324 321 319 316 312 308 304 301 298 296 293 291 291 286 291 297 298 300 299 299 295 287 279 273 268 261 258 262 262 261 259 257 259 257
326 325 326 327 328 327 325 323 322 320 318 316 313 311 307 304 300 296 292 289 285 283 284 287 289 292 292 294 295 293 293 290 280 272 268 260 255 258 261 260 259 258 257
324 323 323 322 322 321 320 320 319 319 318 316 314 311 309 307 302 299 295 290 287 286 286 287 287 285 288 288 289 290 289 287 288 284 274 267 261 255 254 260 261 259 257
320 320 321 323 322 322 321 320 318 317 315 313 312 310 307 306 305 305 302 297 293 289 287 287 289 289 286 287 288 286 285 284 284 286 285 276 265 259 255 254 257 259 257
316 318 320 321 321 320 318 317 315 314 312 310 307 303 300 298 297 296 297 297 296 293 290 288 287 289 288 286 286 287 286 285 284 281 279 279 274 264 256 252 254 258 258
312 315 316 317 318 318 318 317 315 314 312 309 306 303 300 297 293 290 288 289 290 289 287 285 285 287 284 286 285 288 286 287 283 280 278 274 273 272 264 256 251 252 256
312 315 317 318 319 318 318 315 314 314 311 307 306 304 302 300 297 293 286 280 276 278 280 284 283 281 282 280 280 281 285 285 284 282 284 278 276 272 269 264 257 252 252
312 315 317 318 318 319 319 318 318 313 310 308 307 306 304 301 299 298 294 288 281 273 270 272 275 275 281 278 277 274 271 276 276 276 278 277 275 272 269 268 265 258 252
310 314 316 317 318 321 321 319 316 313 309 308 308 307 305 305 307 302 301 298 294 292 291 286 278 277 276 277 280 280 279 273 270 265 267 268 268 269 272 268 265 260 257
311 315 317 318 319 319 321 320 318 313 311 311 312 311 314 313 306 297 295 295 296 294 294 284 279 279 278 277 275 278 275 274 272 271 266 259 264 266 265 270 267 261 257
312 316 316 316 318 321 323 320 317 315 311 313 317 319 316 305 300 295 292 292 291 292 294 296 297 296 294 294 289 275 270 273 270 272 266 254 257 256 262 264 265 265 259